{"data":{"norad_id":53979,"epoch":"2026-09-20T22:01:50.997504Z","epoch_age_seconds":50787,"freshness":"FRESH","line1":"1 53979U 22125R   26263.91795136 -.00001485  00000+0 -36095-4 0  9991","line2":"2 53979  53.1622  55.8478 0001281  82.7800 277.3347 15.31691598218954","mean_motion":15.31691598,"eccentricity":0.0001281,"inclination_deg":53.1622,"raan_deg":55.8478,"arg_perigee_deg":82.78,"mean_anomaly_deg":277.3347,"bstar":-3.6095e-5,"rev_number":21895,"period_min":94.013703664646,"perigee_km":469.88769691345,"apogee_km":471.64238561642,"semimajor_km":6848.9020412649,"source":"CELESTRAK","updated_at":"2026-09-21T09:00:33.042184Z"}}